Time,TemperatureF,DewpointF,PressureIn,WindDirection,WindDirectionDegrees,WindSpeedMPH,WindSpeedGustMPH,Humidity,HourlyPrecipIn,Conditions,Clouds,dailyrainin,SoftwareType,DateUTC
2013-03-28 00:00:00,27.2,18.7,29.65,North,0,0.0,0.0,70,0.00,,,0.00,WUHU216HW,2013-03-28 04:00:00,
2013-03-28 00:05:00,27.0,18.5,29.65,North,0,0.0,0.0,70,0.00,,,0.00,WUHU216HW,2013-03-28 04:05:00,
2013-03-28 00:10:00,26.8,18.4,29.66,North,0,0.0,0.0,70,0.00,,,0.00,WUHU216HW,2013-03-28 04:10:00,
2013-03-28 00:15:00,26.6,18.2,29.65,North,0,0.0,0.0,70,0.00,,,0.00,WUHU216HW,2013-03-28 04:15:00,
2013-03-28 00:20:00,26.8,18.4,29.65,North,0,0.0,0.0,70,0.00,,,0.00,WUHU216HW,2013-03-28 04:20:00,
2013-03-28 00:25:00,26.8,18.4,29.65,North,0,0.0,0.0,70,0.00,,,0.00,WUHU216HW,2013-03-28 04:25:00,
2013-03-28 00:30:00,26.6,18.2,29.65,North,0,0.0,0.0,70,0.00,,,0.00,WUHU216HW,2013-03-28 04:30:00,
2013-03-28 00:35:00,26.8,18.4,29.65,North,0,0.0,0.0,70,0.00,,,0.00,WUHU216HW,2013-03-28 04:35:00,
2013-03-28 00:41:00,26.5,18.0,29.65,North,0,0.0,0.0,70,0.00,,,0.00,WUHU216HW,2013-03-28 04:41:00,
2013-03-28 00:46:00,26.3,17.8,29.65,North,0,0.0,0.0,70,0.00,,,0.00,WUHU216HW,2013-03-28 04:46:00,
2013-03-28 00:51:00,26.3,17.8,29.65,North,0,0.0,0.0,70,0.00,,,0.00,WUHU216HW,2013-03-28 04:51:00,
2013-03-28 00:56:00,26.1,17.9,29.65,North,0,0.0,0.0,71,0.00,,,0.00,WUHU216HW,2013-03-28 04:56:00,
2013-03-28 01:01:00,26.1,17.9,29.65,North,0,0.0,0.0,71,0.00,,,0.00,WUHU216HW,2013-03-28 05:01:00,
2013-03-28 01:06:00,26.1,17.9,29.65,North,0,0.0,0.0,71,0.00,,,0.00,WUHU216HW,2013-03-28 05:06:00,
2013-03-28 01:11:00,26.1,17.9,29.65,North,0,0.0,0.0,71,0.00,,,0.00,WUHU216HW,2013-03-28 05:11:00,
2013-03-28 01:17:00,26.1,17.9,29.65,North,0,0.0,0.0,71,0.00,,,0.00,WUHU216HW,2013-03-28 05:17:00,
2013-03-28 01:22:00,26.3,18.1,29.65,North,0,0.0,0.0,71,0.00,,,0.00,WUHU216HW,2013-03-28 05:22:00,
2013-03-28 01:27:00,26.1,17.9,29.65,North,0,0.0,0.0,71,0.00,,,0.00,WUHU216HW,2013-03-28 05:27:00,
2013-03-28 01:32:00,25.9,17.7,29.65,North,0,0.0,0.0,71,0.00,,,0.00,WUHU216HW,2013-03-28 05:32:00,
2013-03-28 01:37:00,25.9,17.7,29.65,North,0,0.0,0.0,71,0.00,,,0.00,WUHU216HW,2013-03-28 05:37:00,
2013-03-28 01:42:00,25.7,17.6,29.65,North,0,0.0,0.0,71,0.00,,,0.00,WUHU216HW,2013-03-28 05:42:00,
2013-03-28 01:47:00,25.6,17.5,29.65,North,0,0.0,0.0,71,0.00,,,0.00,WUHU216HW,2013-03-28 05:47:00,
2013-03-28 01:52:00,25.6,17.5,29.65,North,0,0.0,0.0,71,0.00,,,0.00,WUHU216HW,2013-03-28 05:52:00,
2013-03-28 01:57:00,25.6,17.5,29.65,North,0,0.0,0.0,71,0.00,,,0.00,WUHU216HW,2013-03-28 05:57:00,
2013-03-28 02:02:00,25.4,17.3,29.65,North,0,0.0,0.0,71,0.00,,,0.00,WUHU216HW,2013-03-28 06:02:00,
2013-03-28 02:07:00,25.6,17.5,29.65,North,0,0.0,0.0,71,0.00,,,0.00,WUHU216HW,2013-03-28 06:07:00,
2013-03-28 02:12:00,25.6,17.5,29.65,North,0,0.0,0.0,71,0.00,,,0.00,WUHU216HW,2013-03-28 06:12:00,
2013-03-28 02:17:00,25.7,17.6,29.65,North,0,0.0,0.0,71,0.00,,,0.00,WUHU216HW,2013-03-28 06:17:00,
2013-03-28 02:23:00,25.7,17.6,29.65,North,0,0.0,0.0,71,0.00,,,0.00,WUHU216HW,2013-03-28 06:23:00,
2013-03-28 02:28:00,25.9,17.7,29.65,North,0,0.0,0.0,71,0.00,,,0.00,WUHU216HW,2013-03-28 06:28:00,
2013-03-28 02:33:00,25.7,17.6,29.65,North,0,0.0,0.0,71,0.00,,,0.00,WUHU216HW,2013-03-28 06:33:00,
2013-03-28 02:38:00,25.6,17.5,29.65,North,0,0.0,0.0,71,0.00,,,0.00,WUHU216HW,2013-03-28 06:38:00,
2013-03-28 02:43:00,25.6,17.5,29.65,North,0,0.0,0.0,71,0.00,,,0.00,WUHU216HW,2013-03-28 06:43:00,
2013-03-28 02:48:00,25.6,17.5,29.65,North,0,0.0,0.0,71,0.00,,,0.00,WUHU216HW,2013-03-28 06:48:00,
2013-03-28 02:53:00,25.6,17.5,29.65,North,0,0.0,0.0,71,0.00,,,0.00,WUHU216HW,2013-03-28 06:53:00,
2013-03-28 02:58:00,25.6,17.5,29.65,North,0,0.0,0.0,71,0.00,,,0.00,WUHU216HW,2013-03-28 06:58:00,
2013-03-28 03:03:00,25.6,17.5,29.65,North,0,0.0,0.0,71,0.00,,,0.00,WUHU216HW,2013-03-28 07:03:00,
2013-03-28 03:08:00,25.7,17.6,29.65,North,0,0.0,0.0,71,0.00,,,0.00,WUHU216HW,2013-03-28 07:08:00,
2013-03-28 03:13:00,25.7,17.6,29.65,North,0,0.0,0.0,71,0.00,,,0.00,WUHU216HW,2013-03-28 07:13:00,
2013-03-28 03:18:00,25.7,17.6,29.65,North,0,0.0,0.0,71,0.00,,,0.00,WUHU216HW,2013-03-28 07:18:00,
2013-03-28 03:23:00,25.6,17.5,29.65,North,0,0.0,0.0,71,0.00,,,0.00,WUHU216HW,2013-03-28 07:23:00,
2013-03-28 03:28:00,25.6,17.5,29.65,North,0,0.0,0.0,71,0.00,,,0.00,WUHU216HW,2013-03-28 07:28:00,
2013-03-28 03:33:00,25.6,17.5,29.65,North,0,0.0,0.0,71,0.00,,,0.00,WUHU216HW,2013-03-28 07:33:00,
2013-03-28 03:38:00,25.7,17.6,29.65,North,0,0.0,0.0,71,0.00,,,0.00,WUHU216HW,2013-03-28 07:38:00,
2013-03-28 03:43:00,26.3,17.8,29.65,North,0,0.0,0.0,70,0.00,,,0.00,WUHU216HW,2013-03-28 07:43:00,
2013-03-28 03:49:00,26.3,17.8,29.65,North,0,0.0,0.0,70,0.00,,,0.00,WUHU216HW,2013-03-28 07:49:00,
2013-03-28 03:54:00,26.3,17.8,29.65,North,0,0.0,0.0,70,0.00,,,0.00,WUHU216HW,2013-03-28 07:54:00,
2013-03-28 03:59:00,26.3,17.8,29.65,North,0,0.0,0.0,70,0.00,,,0.00,WUHU216HW,2013-03-28 07:59:00,
2013-03-28 04:04:00,26.3,17.8,29.65,North,0,0.0,0.0,70,0.00,,,0.00,WUHU216HW,2013-03-28 08:04:00,
2013-03-28 04:09:00,26.3,17.8,29.65,North,0,0.0,0.0,70,0.00,,,0.00,WUHU216HW,2013-03-28 08:09:00,
2013-03-28 04:14:00,26.5,17.3,29.65,North,0,0.0,0.0,68,0.00,,,0.00,WUHU216HW,2013-03-28 08:14:00,
2013-03-28 04:19:00,26.8,18.0,29.65,North,0,0.0,0.0,69,0.00,,,0.00,WUHU216HW,2013-03-28 08:19:00,
2013-03-28 04:24:00,26.8,18.0,29.65,North,0,0.0,0.0,69,0.00,,,0.00,WUHU216HW,2013-03-28 08:24:00,
2013-03-28 04:29:00,26.6,18.2,29.65,North,0,0.0,0.0,70,0.00,,,0.00,WUHU216HW,2013-03-28 08:29:00,
2013-03-28 04:34:00,26.6,18.2,29.65,North,0,0.0,0.0,70,0.00,,,0.00,WUHU216HW,2013-03-28 08:34:00,
2013-03-28 04:39:00,26.8,18.0,29.65,North,0,0.0,0.0,69,0.00,,,0.00,WUHU216HW,2013-03-28 08:39:00,
2013-03-28 04:45:00,26.6,18.2,29.65,North,0,0.0,0.0,70,0.00,,,0.00,WUHU216HW,2013-03-28 08:45:00,
2013-03-28 04:50:00,26.6,18.2,29.65,North,0,0.0,0.0,70,0.00,,,0.00,WUHU216HW,2013-03-28 08:50:00,
2013-03-28 04:55:00,26.5,18.0,29.65,North,0,0.0,0.0,70,0.00,,,0.00,WUHU216HW,2013-03-28 08:55:00,
2013-03-28 05:00:00,26.5,18.0,29.65,North,0,0.0,0.0,70,0.00,,,0.00,WUHU216HW,2013-03-28 09:00:00,
2013-03-28 05:05:00,26.3,17.8,29.65,North,0,0.0,0.0,70,0.00,,,0.00,WUHU216HW,2013-03-28 09:05:00,
2013-03-28 05:10:00,26.3,17.8,29.65,North,0,0.0,0.0,70,0.00,,,0.00,WUHU216HW,2013-03-28 09:10:00,
2013-03-28 05:15:00,26.3,17.5,29.65,North,0,0.0,0.0,69,0.00,,,0.00,WUHU216HW,2013-03-28 09:15:00,
2013-03-28 05:20:00,26.3,17.5,29.65,North,0,0.0,0.0,69,0.00,,,0.00,WUHU216HW,2013-03-28 09:20:00,
2013-03-28 05:25:00,26.3,17.8,29.65,North,0,0.0,0.0,70,0.00,,,0.00,WUHU216HW,2013-03-28 09:25:00,
2013-03-28 05:30:00,26.3,17.5,29.65,North,0,0.0,0.0,69,0.00,,,0.00,WUHU216HW,2013-03-28 09:30:00,
2013-03-28 05:35:00,26.3,17.5,29.65,North,0,0.0,0.0,69,0.00,,,0.00,WUHU216HW,2013-03-28 09:35:00,
2013-03-28 05:40:00,26.3,17.5,29.65,North,0,0.0,0.0,69,0.00,,,0.00,WUHU216HW,2013-03-28 09:40:00,
2013-03-28 05:45:00,26.5,17.6,29.65,North,0,0.0,0.0,69,0.00,,,0.00,WUHU216HW,2013-03-28 09:45:00,
2013-03-28 05:50:00,26.6,17.8,29.65,North,0,0.0,0.0,69,0.00,,,0.00,WUHU216HW,2013-03-28 09:50:00,
2013-03-28 05:56:00,26.5,17.6,29.65,North,0,0.0,0.0,69,0.00,,,0.00,WUHU216HW,2013-03-28 09:56:00,
2013-03-28 06:01:00,27.0,17.8,29.65,North,0,0.0,0.0,68,0.00,,,0.00,WUHU216HW,2013-03-28 10:01:00,
2013-03-28 06:06:00,27.0,17.8,29.65,North,0,0.0,0.0,68,0.00,,,0.00,WUHU216HW,2013-03-28 10:06:00,
2013-03-28 06:11:00,26.8,18.0,29.66,North,0,0.0,0.0,69,0.00,,,0.00,WUHU216HW,2013-03-28 10:11:00,
2013-03-28 06:16:00,26.6,17.8,29.66,North,0,0.0,0.0,69,0.00,,,0.00,WUHU216HW,2013-03-28 10:16:00,
2013-03-28 06:21:00,26.6,17.8,29.65,North,0,0.0,0.0,69,0.00,,,0.00,WUHU216HW,2013-03-28 10:21:00,
2013-03-28 06:26:00,26.6,17.8,29.66,North,0,0.0,0.0,69,0.00,,,0.00,WUHU216HW,2013-03-28 10:26:00,
2013-03-28 06:31:00,26.6,17.8,29.66,North,0,0.0,0.0,69,0.00,,,0.00,WUHU216HW,2013-03-28 10:31:00,
2013-03-28 06:36:00,27.0,17.8,29.66,North,0,0.0,0.0,68,0.00,,,0.00,WUHU216HW,2013-03-28 10:36:00,
2013-03-28 06:42:00,27.0,18.2,29.66,North,0,0.0,0.0,69,0.00,,,0.00,WUHU216HW,2013-03-28 10:42:00,
2013-03-28 06:47:00,26.8,17.6,29.66,North,0,0.0,0.0,68,0.00,,,0.00,WUHU216HW,2013-03-28 10:47:00,
2013-03-28 06:52:00,26.8,17.6,29.66,North,0,0.0,0.0,68,0.00,,,0.00,WUHU216HW,2013-03-28 10:52:00,
2013-03-28 06:57:00,27.0,17.8,29.66,North,0,0.0,0.0,68,0.00,,,0.00,WUHU216HW,2013-03-28 10:57:00,
2013-03-28 07:02:00,27.0,17.8,29.67,North,0,0.0,0.0,68,0.00,,,0.00,WUHU216HW,2013-03-28 11:02:00,
2013-03-28 07:07:00,27.0,17.8,29.67,North,0,0.0,0.0,68,0.00,,,0.00,WUHU216HW,2013-03-28 11:07:00,
2013-03-28 07:12:00,26.8,17.6,29.67,North,0,0.0,0.0,68,0.00,,,0.00,WUHU216HW,2013-03-28 11:12:00,
2013-03-28 07:17:00,26.6,17.8,29.67,North,0,0.0,0.0,69,0.00,,,0.00,WUHU216HW,2013-03-28 11:17:00,
2013-03-28 07:22:00,26.3,17.5,29.67,North,0,0.0,0.0,69,0.00,,,0.00,WUHU216HW,2013-03-28 11:22:00,
2013-03-28 07:27:00,25.9,17.1,29.67,North,0,0.0,0.0,69,0.00,,,0.00,WUHU216HW,2013-03-28 11:27:00,
2013-03-28 07:32:00,25.7,16.9,29.67,North,0,0.0,0.0,69,0.00,,,0.00,WUHU216HW,2013-03-28 11:32:00,
2013-03-28 07:37:00,25.6,16.7,29.68,North,0,0.0,0.0,69,0.00,,,0.00,WUHU216HW,2013-03-28 11:37:00,
2013-03-28 07:43:00,25.4,16.6,29.68,North,0,0.0,0.0,69,0.00,,,0.00,WUHU216HW,2013-03-28 11:43:00,
2013-03-28 07:48:00,25.2,16.4,29.68,North,0,0.0,0.0,69,0.00,,,0.00,WUHU216HW,2013-03-28 11:48:00,
2013-03-28 07:53:00,25.0,16.2,29.68,North,0,0.0,0.0,69,0.00,,,0.00,WUHU216HW,2013-03-28 11:53:00,
2013-03-28 07:58:00,25.2,16.4,29.68,North,0,0.0,0.0,69,0.00,,,0.00,WUHU216HW,2013-03-28 11:58:00,
2013-03-28 08:03:00,25.2,16.0,29.68,North,0,0.0,0.0,68,0.00,,,0.00,WUHU216HW,2013-03-28 12:03:00,
2013-03-28 08:08:00,25.2,16.0,29.68,North,0,0.0,0.0,68,0.00,,,0.00,WUHU216HW,2013-03-28 12:08:00,
2013-03-28 08:13:00,25.4,16.2,29.68,North,0,0.0,0.0,68,0.00,,,0.00,WUHU216HW,2013-03-28 12:13:00,
2013-03-28 08:18:00,25.6,16.4,29.68,North,0,0.0,0.0,68,0.00,,,0.00,WUHU216HW,2013-03-28 12:18:00,
2013-03-28 08:23:00,25.9,16.4,29.68,North,0,0.0,0.0,67,0.00,,,0.00,WUHU216HW,2013-03-28 12:23:00,
2013-03-28 08:28:00,26.3,16.4,29.68,North,0,0.0,0.0,66,0.00,,,0.00,WUHU216HW,2013-03-28 12:28:00,
2013-03-28 08:33:00,26.8,16.9,29.68,North,0,0.0,0.0,66,0.00,,,0.00,WUHU216HW,2013-03-28 12:33:00,
2013-03-28 08:39:00,27.5,16.9,29.69,North,0,0.0,0.0,64,0.00,,,0.00,WUHU216HW,2013-03-28 12:39:00,
2013-03-28 08:44:00,28.6,17.3,29.69,North,0,0.0,0.0,62,0.00,,,0.00,WUHU216HW,2013-03-28 12:44:00,
2013-03-28 08:49:00,29.7,18.6,29.69,North,0,0.0,0.0,63,0.00,,,0.00,WUHU216HW,2013-03-28 12:49:00,
2013-03-28 08:54:00,30.6,20.2,29.69,North,0,0.0,0.0,65,0.00,,,0.00,WUHU216HW,2013-03-28 12:54:00,
2013-03-28 08:59:00,31.3,21.2,29.69,North,0,0.0,0.0,66,0.00,,,0.00,WUHU216HW,2013-03-28 12:59:00,
2013-03-28 09:04:00,31.7,22.0,29.69,North,0,0.0,0.0,67,0.00,,,0.00,WUHU216HW,2013-03-28 13:04:00,
2013-03-28 09:09:00,32.0,22.7,29.69,North,0,0.0,0.0,68,0.00,,,0.00,WUHU216HW,2013-03-28 13:09:00,
2013-03-28 09:14:00,32.4,23.4,29.69,North,0,0.0,0.0,69,0.00,,,0.00,WUHU216HW,2013-03-28 13:14:00,
2013-03-28 09:19:00,32.8,23.7,29.69,North,0,0.0,0.0,69,0.00,,,0.00,WUHU216HW,2013-03-28 13:19:00,
2013-03-28 09:24:00,33.1,24.0,29.70,North,0,0.0,0.0,69,0.00,,,0.00,WUHU216HW,2013-03-28 13:24:00,
2013-03-28 09:29:00,33.5,24.3,29.70,North,0,0.0,0.0,69,0.00,,,0.00,WUHU216HW,2013-03-28 13:29:00,
2013-03-28 09:34:00,33.8,24.3,29.70,North,0,0.0,0.0,68,0.00,,,0.00,WUHU216HW,2013-03-28 13:34:00,
2013-03-28 09:40:00,34.4,25.2,29.70,North,0,0.0,0.0,69,0.00,,,0.00,WUHU216HW,2013-03-28 13:40:00,
2013-03-28 09:45:00,34.9,25.4,29.70,North,0,0.0,0.0,68,0.00,,,0.00,WUHU216HW,2013-03-28 13:45:00,
2013-03-28 09:50:00,35.3,25.4,29.70,North,0,0.0,0.0,67,0.00,,,0.00,WUHU216HW,2013-03-28 13:50:00,
2013-03-28 09:55:00,35.8,25.9,29.70,North,0,0.0,0.0,67,0.00,,,0.00,WUHU216HW,2013-03-28 13:55:00,
2013-03-28 10:00:00,36.5,26.7,29.70,North,0,0.0,0.0,67,0.00,,,0.00,WUHU216HW,2013-03-28 14:00:00,
2013-03-28 10:05:00,36.9,25.8,29.70,North,0,0.0,0.0,64,0.00,,,0.00,WUHU216HW,2013-03-28 14:05:00,
2013-03-28 10:10:00,37.3,26.2,29.70,North,0,0.0,0.0,64,0.00,,,0.00,WUHU216HW,2013-03-28 14:10:00,
2013-03-28 10:15:00,37.4,25.6,29.70,North,0,0.0,0.0,62,0.00,,,0.00,WUHU216HW,2013-03-28 14:15:00,
2013-03-28 10:20:00,37.8,26.3,29.70,North,0,0.0,0.0,63,0.00,,,0.00,WUHU216HW,2013-03-28 14:20:00,
2013-03-28 10:25:00,38.3,26.8,29.70,North,0,0.0,0.0,63,0.00,,,0.00,WUHU216HW,2013-03-28 14:25:00,
2013-03-28 10:30:00,38.7,26.7,29.70,North,0,0.0,0.0,62,0.00,,,0.00,WUHU216HW,2013-03-28 14:30:00,
2013-03-28 10:35:00,39.2,26.8,29.70,North,0,0.0,0.0,61,0.00,,,0.00,WUHU216HW,2013-03-28 14:35:00,
2013-03-28 10:40:00,39.4,26.6,29.71,North,0,0.0,0.0,60,0.00,,,0.00,WUHU216HW,2013-03-28 14:40:00,
2013-03-28 10:45:00,39.6,26.4,29.70,North,0,0.0,0.0,59,0.00,,,0.00,WUHU216HW,2013-03-28 14:45:00,
2013-03-28 10:50:00,40.0,26.7,29.70,North,0,0.0,0.0,59,0.00,,,0.00,WUHU216HW,2013-03-28 14:50:00,
2013-03-28 10:55:00,40.1,25.6,29.70,North,0,0.0,0.0,56,0.00,,,0.00,WUHU216HW,2013-03-28 14:55:00,
2013-03-28 11:00:00,40.3,25.7,29.70,North,0,0.0,0.0,56,0.00,,,0.00,WUHU216HW,2013-03-28 15:00:00,
2013-03-28 11:05:00,40.5,25.9,29.70,North,0,0.0,0.0,56,0.00,,,0.00,WUHU216HW,2013-03-28 15:05:00,
2013-03-28 11:10:00,40.9,25.8,29.71,North,0,0.0,0.0,55,0.00,,,0.00,WUHU216HW,2013-03-28 15:10:00,
2013-03-28 11:16:00,41.4,26.4,29.71,North,0,0.0,0.0,55,0.00,,,0.00,WUHU216HW,2013-03-28 15:16:00,
2013-03-28 11:21:00,41.4,25.5,29.71,North,0,0.0,0.0,53,0.00,,,0.00,WUHU216HW,2013-03-28 15:21:00,
2013-03-28 11:26:00,42.1,27.0,29.71,North,0,0.0,0.0,55,0.00,,,0.00,WUHU216HW,2013-03-28 15:26:00,
2013-03-28 11:31:00,42.1,25.3,29.71,North,0,0.0,0.0,51,0.00,,,0.00,WUHU216HW,2013-03-28 15:31:00,
2013-03-28 11:36:00,42.3,25.0,29.71,North,0,0.0,0.0,50,0.00,,,0.00,WUHU216HW,2013-03-28 15:36:00,
2013-03-28 11:41:00,42.3,25.0,29.71,North,0,0.0,0.0,50,0.00,,,0.00,WUHU216HW,2013-03-28 15:41:00,
2013-03-28 11:46:00,43.2,26.7,29.71,North,0,0.0,0.0,52,0.00,,,0.00,WUHU216HW,2013-03-28 15:46:00,
2013-03-28 11:51:00,43.7,25.8,29.71,North,0,0.0,0.0,49,0.00,,,0.00,WUHU216HW,2013-03-28 15:51:00,
2013-03-28 11:56:00,43.7,24.8,29.71,North,0,0.0,0.0,47,0.00,,,0.00,WUHU216HW,2013-03-28 15:56:00,
2013-03-28 12:01:00,43.6,25.7,29.71,North,0,0.0,0.0,49,0.00,,,0.00,WUHU216HW,2013-03-28 16:01:00,
2013-03-28 12:07:00,43.6,25.1,29.71,North,0,0.0,0.0,48,0.00,,,0.00,WUHU216HW,2013-03-28 16:07:00,
2013-03-28 12:12:00,44.3,25.7,29.72,North,0,0.0,0.0,48,0.00,,,0.00,WUHU216HW,2013-03-28 16:12:00,
2013-03-28 12:17:00,44.1,25.1,29.72,North,0,0.0,0.0,47,0.00,,,0.00,WUHU216HW,2013-03-28 16:17:00,
2013-03-28 12:22:00,44.5,27.9,29.72,North,0,0.0,0.0,52,0.00,,,0.00,WUHU216HW,2013-03-28 16:22:00,
2013-03-28 12:27:00,45.0,25.4,29.71,North,0,0.0,0.0,46,0.00,,,0.00,WUHU216HW,2013-03-28 16:27:00,
2013-03-28 12:32:00,45.7,24.9,29.71,North,0,0.0,0.0,44,0.00,,,0.00,WUHU216HW,2013-03-28 16:32:00,
2013-03-28 12:37:00,45.5,25.3,29.71,North,0,0.0,0.0,45,0.00,,,0.00,WUHU216HW,2013-03-28 16:37:00,
2013-03-28 12:42:00,45.7,26.0,29.71,North,0,0.0,0.0,46,0.00,,,0.00,WUHU216HW,2013-03-28 16:42:00,
2013-03-28 12:47:00,45.7,25.5,29.71,North,0,0.0,0.0,45,0.00,,,0.00,WUHU216HW,2013-03-28 16:47:00,
2013-03-28 12:53:00,46.3,26.5,29.71,North,0,0.0,0.0,46,0.00,,,0.00,WUHU216HW,2013-03-28 16:53:00,
2013-03-28 12:58:00,46.4,26.6,29.71,North,0,0.0,0.0,46,0.00,,,0.00,WUHU216HW,2013-03-28 16:58:00,
2013-03-28 13:03:00,47.9,27.9,29.71,North,0,0.0,0.0,46,0.00,,,0.00,WUHU216HW,2013-03-28 17:03:00,
2013-03-28 13:08:00,49.3,27.1,29.71,North,0,0.0,0.0,42,0.00,,,0.00,WUHU216HW,2013-03-28 17:08:00,
2013-03-28 13:13:00,47.2,26.7,29.72,North,0,0.0,0.0,45,0.00,,,0.00,WUHU216HW,2013-03-28 17:13:00,
2013-03-28 13:18:00,47.2,27.8,29.71,North,0,0.0,0.0,47,0.00,,,0.00,WUHU216HW,2013-03-28 17:18:00,
2013-03-28 13:23:00,46.4,26.1,29.71,North,0,0.0,0.0,45,0.00,,,0.00,WUHU216HW,2013-03-28 17:23:00,
2013-03-28 13:28:00,46.8,27.0,29.71,North,0,0.0,0.0,46,0.00,,,0.00,WUHU216HW,2013-03-28 17:28:00,
2013-03-28 13:33:00,46.8,27.0,29.71,North,0,0.0,0.0,46,0.00,,,0.00,WUHU216HW,2013-03-28 17:33:00,
2013-03-28 13:38:00,47.3,26.4,29.71,North,0,0.0,0.0,44,0.00,,,0.00,WUHU216HW,2013-03-28 17:38:00,
2013-03-28 13:43:00,46.8,26.5,29.71,North,0,0.0,0.0,45,0.00,,,0.00,WUHU216HW,2013-03-28 17:43:00,
2013-03-28 13:48:00,48.6,28.6,29.71,North,0,0.0,0.0,46,0.00,,,0.00,WUHU216HW,2013-03-28 17:48:00,
2013-03-28 13:53:00,49.0,30.6,29.71,North,0,0.0,0.0,49,0.00,,,0.00,WUHU216HW,2013-03-28 17:53:00,
2013-03-28 13:59:00,50.8,30.1,29.70,North,0,0.0,0.0,45,0.00,,,0.00,WUHU216HW,2013-03-28 17:59:00,
2013-03-28 14:04:00,51.1,28.2,29.70,North,0,0.0,0.0,41,0.00,,,0.00,WUHU216HW,2013-03-28 18:04:00,
2013-03-28 14:09:00,49.7,28.5,29.70,North,0,0.0,0.0,44,0.00,,,0.00,WUHU216HW,2013-03-28 18:09:00,
2013-03-28 14:14:00,50.4,29.8,29.70,North,0,0.0,0.0,45,0.00,,,0.00,WUHU216HW,2013-03-28 18:14:00,
2013-03-28 14:19:00,50.9,30.8,29.69,North,0,0.0,0.0,46,0.00,,,0.00,WUHU216HW,2013-03-28 18:19:00,
2013-03-28 14:24:00,50.6,29.3,29.70,North,0,0.0,0.0,44,0.00,,,0.00,WUHU216HW,2013-03-28 18:24:00,
2013-03-28 14:29:00,51.8,29.3,29.69,North,0,0.0,0.0,42,0.00,,,0.00,WUHU216HW,2013-03-28 18:29:00,
2013-03-28 14:34:00,50.2,29.1,29.69,North,0,0.0,0.0,44,0.00,,,0.00,WUHU216HW,2013-03-28 18:34:00,
2013-03-28 14:39:00,50.8,28.5,29.69,North,0,0.0,0.0,42,0.00,,,0.00,WUHU216HW,2013-03-28 18:39:00,
2013-03-28 14:44:00,50.0,28.4,29.69,North,0,0.0,0.0,43,0.00,,,0.00,WUHU216HW,2013-03-28 18:44:00,
2013-03-28 14:49:00,50.9,30.2,29.69,North,0,0.0,0.0,45,0.00,,,0.00,WUHU216HW,2013-03-28 18:49:00,
2013-03-28 14:54:00,51.5,28.5,29.69,North,0,0.0,0.0,41,0.00,,,0.00,WUHU216HW,2013-03-28 18:54:00,
2013-03-28 14:59:00,52.9,30.3,29.69,North,0,0.0,0.0,42,0.00,,,0.00,WUHU216HW,2013-03-28 18:59:00,
2013-03-28 15:04:00,51.5,27.9,29.69,North,0,0.0,0.0,40,0.00,,,0.00,WUHU216HW,2013-03-28 19:04:00,
2013-03-28 15:09:00,50.9,28.0,29.68,North,0,0.0,0.0,41,0.00,,,0.00,WUHU216HW,2013-03-28 19:09:00,
2013-03-28 15:15:00,52.2,30.2,29.68,North,0,0.0,0.0,43,0.00,,,0.00,WUHU216HW,2013-03-28 19:15:00,
2013-03-28 15:20:00,52.2,30.2,29.68,North,0,0.0,0.0,43,0.00,,,0.00,WUHU216HW,2013-03-28 19:20:00,
2013-03-28 15:25:00,52.6,29.4,29.68,North,0,0.0,0.0,41,0.00,,,0.00,WUHU216HW,2013-03-28 19:25:00,
2013-03-28 15:30:00,51.5,30.2,29.68,North,0,0.0,0.0,44,0.00,,,0.00,WUHU216HW,2013-03-28 19:30:00,
2013-03-28 15:35:00,53.3,32.3,29.67,North,0,0.0,0.0,45,0.00,,,0.00,WUHU216HW,2013-03-28 19:35:00,
2013-03-28 15:40:00,54.4,31.1,29.67,North,0,0.0,0.0,41,0.00,,,0.00,WUHU216HW,2013-03-28 19:40:00,
2013-03-28 15:45:00,54.0,30.3,29.67,North,0,0.0,0.0,40,0.00,,,0.00,WUHU216HW,2013-03-28 19:45:00,
2013-03-28 15:50:00,53.6,30.4,29.67,North,0,0.0,0.0,41,0.00,,,0.00,WUHU216HW,2013-03-28 19:50:00,
2013-03-28 15:55:00,53.5,28.4,29.67,North,0,0.0,0.0,38,0.00,,,0.00,WUHU216HW,2013-03-28 19:55:00,
2013-03-28 16:00:00,52.9,30.3,29.67,North,0,0.0,0.0,42,0.00,,,0.00,WUHU216HW,2013-03-28 20:00:00,
2013-03-28 16:05:00,52.9,29.8,29.67,North,0,0.0,0.0,41,0.00,,,0.00,WUHU216HW,2013-03-28 20:05:00,
2013-03-28 16:10:00,53.6,29.2,29.66,North,0,0.0,0.0,39,0.00,,,0.00,WUHU216HW,2013-03-28 20:10:00,
2013-03-28 16:15:00,53.6,30.4,29.66,North,0,0.0,0.0,41,0.00,,,0.00,WUHU216HW,2013-03-28 20:15:00,
2013-03-28 16:20:00,53.3,29.5,29.66,North,0,0.0,0.0,40,0.00,,,0.00,WUHU216HW,2013-03-28 20:20:00,
2013-03-28 16:25:00,54.0,28.8,29.66,North,0,0.0,0.0,38,0.00,,,0.00,WUHU216HW,2013-03-28 20:25:00,
2013-03-28 16:30:00,55.3,28.5,29.66,North,0,0.0,0.0,36,0.00,,,0.00,WUHU216HW,2013-03-28 20:30:00,
2013-03-28 16:35:00,54.2,30.3,29.66,North,0,0.0,0.0,40,0.00,,,0.00,WUHU216HW,2013-03-28 20:35:00,
2013-03-28 16:40:00,55.8,29.7,29.66,North,0,0.0,0.0,37,0.00,,,0.00,WUHU216HW,2013-03-28 20:40:00,
2013-03-28 16:46:00,55.1,29.1,29.65,North,0,0.0,0.0,37,0.00,,,0.00,WUHU216HW,2013-03-28 20:46:00,
2013-03-28 16:51:00,54.4,29.9,29.65,North,0,0.0,0.0,39,0.00,,,0.00,WUHU216HW,2013-03-28 20:51:00,
2013-03-28 16:56:00,55.6,31.7,29.65,North,0,0.0,0.0,40,0.00,,,0.00,WUHU216HW,2013-03-28 20:56:00,
2013-03-28 17:01:00,54.7,29.4,29.65,North,0,0.0,0.0,38,0.00,,,0.00,WUHU216HW,2013-03-28 21:01:00,
2013-03-28 17:06:00,55.1,31.1,29.65,North,0,0.0,0.0,40,0.00,,,0.00,WUHU216HW,2013-03-28 21:06:00,
2013-03-28 17:11:00,54.2,29.0,29.65,North,0,0.0,0.0,38,0.00,,,0.00,WUHU216HW,2013-03-28 21:11:00,
2013-03-28 17:16:00,54.0,30.8,29.65,North,0,0.0,0.0,41,0.00,,,0.00,WUHU216HW,2013-03-28 21:16:00,
2013-03-28 17:21:00,55.1,30.5,29.65,North,0,0.0,0.0,39,0.00,,,0.00,WUHU216HW,2013-03-28 21:21:00,
2013-03-28 17:26:00,55.3,30.6,29.65,North,0,0.0,0.0,39,0.00,,,0.00,WUHU216HW,2013-03-28 21:26:00,
2013-03-28 17:32:00,54.4,28.4,29.65,North,0,0.0,0.0,37,0.00,,,0.00,WUHU216HW,2013-03-28 21:32:00,
2013-03-28 17:37:00,55.1,29.8,29.65,North,0,0.0,0.0,38,0.00,,,0.00,WUHU216HW,2013-03-28 21:37:00,
2013-03-28 17:42:00,54.9,30.3,29.65,North,0,0.0,0.0,39,0.00,,,0.00,WUHU216HW,2013-03-28 21:42:00,
2013-03-28 17:47:00,56.5,29.7,29.64,North,0,0.0,0.0,36,0.00,,,0.00,WUHU216HW,2013-03-28 21:47:00,
2013-03-28 17:52:00,55.8,29.7,29.65,North,0,0.0,0.0,37,0.00,,,0.00,WUHU216HW,2013-03-28 21:52:00,
2013-03-28 17:57:00,55.4,30.1,29.64,North,0,0.0,0.0,38,0.00,,,0.00,WUHU216HW,2013-03-28 21:57:00,
2013-03-28 18:02:00,54.5,30.7,29.64,North,0,0.0,0.0,40,0.00,,,0.00,WUHU216HW,2013-03-28 22:02:00,
2013-03-28 18:07:00,55.6,29.5,29.64,North,0,0.0,0.0,37,0.00,,,0.00,WUHU216HW,2013-03-28 22:07:00,
2013-03-28 18:12:00,54.0,29.5,29.65,North,0,0.0,0.0,39,0.00,,,0.00,WUHU216HW,2013-03-28 22:12:00,
2013-03-28 18:17:00,54.0,30.8,29.64,North,0,0.0,0.0,41,0.00,,,0.00,WUHU216HW,2013-03-28 22:17:00,
2013-03-28 18:22:00,53.5,29.7,29.64,North,0,0.0,0.0,40,0.00,,,0.00,WUHU216HW,2013-03-28 22:22:00,
2013-03-28 18:27:00,53.3,29.5,29.65,North,0,0.0,0.0,40,0.00,,,0.00,WUHU216HW,2013-03-28 22:27:00,
2013-03-28 18:32:00,52.4,29.9,29.65,North,0,0.0,0.0,42,0.00,,,0.00,WUHU216HW,2013-03-28 22:32:00,
2013-03-28 18:38:00,50.8,29.0,29.64,North,0,0.0,0.0,43,0.00,,,0.00,WUHU216HW,2013-03-28 22:38:00,
2013-03-28 18:43:00,50.8,29.5,29.64,North,0,0.0,0.0,44,0.00,,,0.00,WUHU216HW,2013-03-28 22:43:00,
2013-03-28 18:48:00,50.6,28.8,29.64,North,0,0.0,0.0,43,0.00,,,0.00,WUHU216HW,2013-03-28 22:48:00,
2013-03-28 18:53:00,49.9,28.7,29.64,North,0,0.0,0.0,44,0.00,,,0.00,WUHU216HW,2013-03-28 22:53:00,
2013-03-28 18:58:00,49.5,28.9,29.64,North,0,0.0,0.0,45,0.00,,,0.00,WUHU216HW,2013-03-28 22:58:00,
2013-03-28 19:03:00,49.1,28.0,29.64,North,0,0.0,0.0,44,0.00,,,0.00,WUHU216HW,2013-03-28 23:03:00,
2013-03-28 19:08:00,48.6,28.1,29.64,North,0,0.0,0.0,45,0.00,,,0.00,WUHU216HW,2013-03-28 23:08:00,
2013-03-28 19:13:00,48.2,28.3,29.64,North,0,0.0,0.0,46,0.00,,,0.00,WUHU216HW,2013-03-28 23:13:00,
2013-03-28 19:18:00,47.9,27.9,29.64,North,0,0.0,0.0,46,0.00,,,0.00,WUHU216HW,2013-03-28 23:18:00,
2013-03-28 19:23:00,47.5,28.2,29.64,North,0,0.0,0.0,47,0.00,,,0.00,WUHU216HW,2013-03-28 23:23:00,
2013-03-28 19:28:00,47.2,27.8,29.64,North,0,0.0,0.0,47,0.00,,,0.00,WUHU216HW,2013-03-28 23:28:00,
2013-03-28 19:33:00,46.8,27.6,29.64,North,0,0.0,0.0,47,0.00,,,0.00,WUHU216HW,2013-03-28 23:33:00,
2013-03-28 19:38:00,46.1,27.9,29.65,North,0,0.0,0.0,49,0.00,,,0.00,WUHU216HW,2013-03-28 23:38:00,
2013-03-28 19:43:00,45.7,28.2,29.65,North,0,0.0,0.0,50,0.00,,,0.00,WUHU216HW,2013-03-28 23:43:00,
2013-03-28 19:48:00,45.2,27.6,29.65,North,0,0.0,0.0,50,0.00,,,0.00,WUHU216HW,2013-03-28 23:48:00,
2013-03-28 19:53:00,45.0,28.0,29.65,North,0,0.0,0.0,51,0.00,,,0.00,WUHU216HW,2013-03-28 23:53:00,
2013-03-28 19:58:00,44.5,27.5,29.65,North,0,0.0,0.0,51,0.00,,,0.00,WUHU216HW,2013-03-28 23:58:00,
2013-03-28 20:03:00,44.1,27.5,29.65,North,0,0.0,0.0,52,0.00,,,0.00,WUHU216HW,2013-03-29 00:03:00,
2013-03-28 20:08:00,43.7,27.7,29.65,North,0,0.0,0.0,53,0.00,,,0.00,WUHU216HW,2013-03-29 00:08:00,
2013-03-28 20:14:00,43.4,27.4,29.65,North,0,0.0,0.0,53,0.00,,,0.00,WUHU216HW,2013-03-29 00:14:00,
2013-03-28 20:19:00,43.0,27.0,29.65,North,0,0.0,0.0,53,0.00,,,0.00,WUHU216HW,2013-03-29 00:19:00,
2013-03-28 20:24:00,42.8,26.8,29.65,North,0,0.0,0.0,53,0.00,,,0.00,WUHU216HW,2013-03-29 00:24:00,
2013-03-28 20:29:00,42.5,26.6,29.65,North,0,0.0,0.0,53,0.00,,,0.00,WUHU216HW,2013-03-29 00:29:00,
2013-03-28 20:34:00,42.1,26.2,29.65,North,0,0.0,0.0,53,0.00,,,0.00,WUHU216HW,2013-03-29 00:34:00,
2013-03-28 20:39:00,41.6,25.2,29.65,North,0,0.0,0.0,52,0.00,,,0.00,WUHU216HW,2013-03-29 00:39:00,
2013-03-28 20:44:00,41.0,25.1,29.65,North,0,0.0,0.0,53,0.00,,,0.00,WUHU216HW,2013-03-29 00:44:00,
2013-03-28 20:49:00,40.3,24.5,29.65,North,0,0.0,0.0,53,0.00,,,0.00,WUHU216HW,2013-03-29 00:49:00,
2013-03-28 20:54:00,39.8,24.4,29.65,North,0,0.0,0.0,54,0.00,,,0.00,WUHU216HW,2013-03-29 00:54:00,
2013-03-28 20:59:00,39.2,23.9,29.65,North,0,0.0,0.0,54,0.00,,,0.00,WUHU216HW,2013-03-29 00:59:00,
2013-03-28 21:04:00,38.7,23.9,29.65,North,0,0.0,0.0,55,0.00,,,0.00,WUHU216HW,2013-03-29 01:04:00,
2013-03-28 21:09:00,38.2,23.8,29.65,North,0,0.0,0.0,56,0.00,,,0.00,WUHU216HW,2013-03-29 01:09:00,
2013-03-28 21:15:00,37.8,23.9,29.65,North,0,0.0,0.0,57,0.00,,,0.00,WUHU216HW,2013-03-29 01:15:00,
2013-03-28 21:20:00,37.3,23.4,29.65,North,0,0.0,0.0,57,0.00,,,0.00,WUHU216HW,2013-03-29 01:20:00,
2013-03-28 21:25:00,36.7,23.3,29.65,North,0,0.0,0.0,58,0.00,,,0.00,WUHU216HW,2013-03-29 01:25:00,
2013-03-28 21:30:00,36.4,23.4,29.66,North,0,0.0,0.0,59,0.00,,,0.00,WUHU216HW,2013-03-29 01:30:00,
2013-03-28 21:35:00,36.2,23.7,29.66,North,0,0.0,0.0,60,0.00,,,0.00,WUHU216HW,2013-03-29 01:35:00,
2013-03-28 21:40:00,35.6,23.2,29.66,North,0,0.0,0.0,60,0.00,,,0.00,WUHU216HW,2013-03-29 01:40:00,
2013-03-28 21:45:00,35.3,22.9,29.66,North,0,0.0,0.0,60,0.00,,,0.00,WUHU216HW,2013-03-29 01:45:00,
2013-03-28 21:50:00,34.9,22.9,29.66,North,0,0.0,0.0,61,0.00,,,0.00,WUHU216HW,2013-03-29 01:50:00,
2013-03-28 21:55:00,34.7,23.0,29.66,North,0,0.0,0.0,62,0.00,,,0.00,WUHU216HW,2013-03-29 01:55:00,
2013-03-28 22:00:00,34.6,22.9,29.66,North,0,0.0,0.0,62,0.00,,,0.00,WUHU216HW,2013-03-29 02:00:00,
2013-03-28 22:05:00,34.4,22.7,29.66,North,0,0.0,0.0,62,0.00,,,0.00,WUHU216HW,2013-03-29 02:05:00,
2013-03-28 22:11:00,34.2,22.9,29.66,North,0,0.0,0.0,63,0.00,,,0.00,WUHU216HW,2013-03-29 02:11:00,
2013-03-28 22:16:00,34.0,22.7,29.66,North,0,0.0,0.0,63,0.00,,,0.00,WUHU216HW,2013-03-29 02:16:00,
2013-03-28 22:21:00,33.8,22.9,29.65,North,0,0.0,0.0,64,0.00,,,0.00,WUHU216HW,2013-03-29 02:21:00,
2013-03-28 22:26:00,33.8,23.2,29.65,North,0,0.0,0.0,65,0.00,,,0.00,WUHU216HW,2013-03-29 02:26:00,
2013-03-28 22:31:00,33.7,23.0,29.66,North,0,0.0,0.0,65,0.00,,,0.00,WUHU216HW,2013-03-29 02:31:00,
2013-03-28 22:36:00,33.5,23.2,29.65,North,0,0.0,0.0,66,0.00,,,0.00,WUHU216HW,2013-03-29 02:36:00,
2013-03-28 22:41:00,33.5,23.2,29.66,North,0,0.0,0.0,66,0.00,,,0.00,WUHU216HW,2013-03-29 02:41:00,
2013-03-28 22:46:00,33.5,23.2,29.66,North,0,0.0,0.0,66,0.00,,,0.00,WUHU216HW,2013-03-29 02:46:00,
2013-03-28 22:51:00,33.3,23.1,29.66,North,0,0.0,0.0,66,0.00,,,0.00,WUHU216HW,2013-03-29 02:51:00,
2013-03-28 22:56:00,32.9,23.1,29.66,North,0,0.0,0.0,67,0.00,,,0.00,WUHU216HW,2013-03-29 02:56:00,
2013-03-28 23:01:00,32.8,23.0,29.66,North,0,0.0,0.0,67,0.00,,,0.00,WUHU216HW,2013-03-29 03:01:00,
2013-03-28 23:06:00,32.8,23.0,29.66,North,0,0.0,0.0,67,0.00,,,0.00,WUHU216HW,2013-03-29 03:06:00,
2013-03-28 23:11:00,32.6,22.8,29.66,North,0,0.0,0.0,67,0.00,,,0.00,WUHU216HW,2013-03-29 03:11:00,
2013-03-28 23:16:00,32.6,23.1,29.66,North,0,0.0,0.0,68,0.00,,,0.00,WUHU216HW,2013-03-29 03:16:00,
2013-03-28 23:22:00,32.4,23.1,29.66,North,0,0.0,0.0,68,0.00,,,0.00,WUHU216HW,2013-03-29 03:22:00,
2013-03-28 23:27:00,32.4,23.1,29.66,North,0,0.0,0.0,68,0.00,,,0.00,WUHU216HW,2013-03-29 03:27:00,
2013-03-28 23:32:00,32.2,22.9,29.66,North,0,0.0,0.0,68,0.00,,,0.00,WUHU216HW,2013-03-29 03:32:00,
2013-03-28 23:37:00,32.0,22.3,29.66,North,0,0.0,0.0,67,0.00,,,0.00,WUHU216HW,2013-03-29 03:37:00,
2013-03-28 23:42:00,31.7,22.3,29.66,North,0,0.0,0.0,68,0.00,,,0.00,WUHU216HW,2013-03-29 03:42:00,
2013-03-28 23:47:00,31.5,22.1,29.66,North,0,0.0,0.0,68,0.00,,,0.00,WUHU216HW,2013-03-29 03:47:00,
2013-03-28 23:52:00,31.3,22.3,29.66,North,0,0.0,0.0,69,0.00,,,0.00,WUHU216HW,2013-03-29 03:52:00,
2013-03-28 23:57:00,31.1,22.1,29.66,North,0,0.0,0.0,69,0.00,,,0.00,WUHU216HW,2013-03-29 03:57:00,